| time (UTC) | temp F | wind direction | speed MPH | gust MPH | rain 1hr in | rain 24hr in | rain mn in | humidity % | barometer mb |
| 20260903133247 | 67 | 343 | 3.0 | 3.0 | 0.87 | 0.52 | 0.52 | 99 | 1019.1 |
| 20260903132746 | 67 | 267 | 1.0 | 4.0 | 0.38 | 0.42 | 0.42 | 99 | 1019.2 |
| 20260903132242 | 68 | 249 | 0.0 | 4.0 | 0.14 | 0.37 | 0.37 | 99 | 1019.2 |
| 20260903131737 | 67 | 37 | 0.0 | 3.0 | 0.38 | 0.35 | 0.35 | 99 | 1018.7 |
| 20260903131236 | 68 | 0 | 3.0 | 5.0 | 0.57 | 0.35 | 0.35 | 99 | 1018.3 |
| 20260903130731 | 68 | 27 | 2.0 | 3.0 | 0.38 | 0.27 | 0.27 | 99 | 1018.0 |
| 20260903130226 | 68 | 321 | 0.0 | 3.0 | 1.06 | 0.25 | 0.25 | 99 | 1018.2 |
| 20260903125724 | 68 | 4 | 2.0 | 3.0 | 0.85 | 0.20 | 0.20 | 99 | 1018.8 |
| 20260903125220 | 68 | 192 | 2.0 | 12.0 | 0.07 | 0.07 | 0.07 | 99 | 1020.3 |
| 20260903124719 | 68 | 250 | 1.0 | 4.0 | 0.00 | 0.06 | 0.06 | 99 | 1019.1 |
| 20260903124215 | 68 | 114 | 0.0 | 2.0 | 0.00 | 0.06 | 0.06 | 99 | 1018.2 |
| 20260903123713 | 68 | 245 | 1.0 | 2.0 | 0.00 | 0.06 | 0.06 | 99 | 1018.6 |
| 20260903123212 | 68 | 11 | 0.0 | 2.0 | 0.00 | 0.06 | 0.06 | 99 | 1018.4 |
| 20260903122711 | 68 | 68 | 1.0 | 2.0 | 0.00 | 0.06 | 0.06 | 99 | 1018.3 |
| 20260903122206 | 68 | 60 | 0.0 | 2.0 | 0.00 | 0.06 | 0.06 | 99 | 1018.4 |
| 20260903121705 | 68 | 109 | 0.0 | 2.0 | 0.00 | 0.06 | 0.06 | 99 | 1018.3 |
| 20260903121201 | 68 | 0 | 0.0 | 3.0 | 0.00 | 0.06 | 0.06 | 99 | 1018.4 |
| 20260903120700 | 68 | 73 | 2.0 | 3.0 | 0.00 | 0.06 | 0.06 | 99 | 1018.7 |
| 20260903120155 | 68 | 32 | 0.0 | 2.0 | 0.00 | 0.06 | 0.06 | 99 | 1018.4 |
| 20260903115653 | 68 | 233 | 2.0 | 3.0 | 0.00 | 0.06 | 0.06 | 99 | 1018.2 |
| 20260903115149 | 68 | 62 | 0.0 | 3.0 | 0.02 | 0.06 | 0.06 | 99 | 1018.1 |
| 20260903114643 | 69 | 25 | 0.0 | 3.0 | 0.12 | 0.06 | 0.06 | 99 | 1018.0 |
| 20260903114139 | 69 | 7 | 2.0 | 4.0 | 0.31 | 0.05 | 0.05 | 99 | 1017.9 |
| 20260903113634 | 69 | 6 | 3.0 | 5.0 | 0.19 | 0.03 | 0.03 | 98 | 1018.3 |
| 20260903113130 | 70 | 1 | 4.0 | 6.0 | 0.00 | 0.00 | 0.00 | 96 | 1018.5 |
| 20260903112626 | 71 | 18 | 3.0 | 6.0 | 0.00 | 0.00 | 0.00 | 96 | 1018.6 |
| 20260903112120 | 71 | 9 | 3.0 | 7.0 | 0.00 | 0.00 | 0.00 | 97 | 1018.0 |
| 20260903111619 | 73 | 354 | 6.0 | 16.0 | 0.00 | 0.00 | 0.00 | 97 | 1017.8 |
| 20260903111115 | 74 | 297 | 0.0 | 1.0 | 0.00 | 0.00 | 0.00 | 98 | 1016.3 |
| 20260903110611 | 74 | 237 | 0.0 | 1.0 | 0.00 | 0.00 | 0.00 | 99 | 1016.2 |
| 20260903110106 | 74 | 255 | 1.0 | 3.0 | 0.00 | 0.00 | 0.00 | 99 | 1016.2 |
| 20260903105601 | 74 | 241 | 1.0 | 2.0 | 0.00 | 0.00 | 0.00 | 99 | 1016.2 |
| 20260903105055 | 73 | 250 | 2.0 | 3.0 | 0.00 | 0.00 | 0.00 | 99 | 1016.3 |
| 20260903104555 | 73 | 187 | 0.0 | 2.0 | 0.00 | 0.00 | 0.00 | 99 | 1016.2 |
| 20260903104046 | 73 | 229 | 1.0 | 2.0 | 0.00 | 0.00 | 0.00 | 99 | 1016.2 |
| 20260903103541 | 73 | 245 | 1.0 | 2.0 | 0.00 | 0.00 | 0.00 | 99 | 1016.5 |
| 20260903103038 | 73 | 241 | 0.0 | 2.0 | 0.00 | 0.00 | 0.00 | 99 | 1016.5 |
| 20260903102533 | 73 | 197 | 0.0 | 2.0 | 0.00 | 0.00 | 0.00 | 99 | 1016.5 |
| 20260903102031 | 73 | 263 | 0.0 | 1.0 | 0.00 | 0.00 | 0.00 | 99 | 1016.4 |
| 20260903101526 | 73 | 246 | 0.0 | 2.0 | 0.00 | 0.00 | 0.00 | 99 | 1016.3 |
| 20260903101022 | 73 | 269 | 0.0 | 1.0 | 0.00 | 0.00 | 0.00 | 99 | 1016.1 |
| 20260903100516 | 73 | 253 | 0.0 | 2.0 | 0.00 | 0.00 | 0.00 | 99 | 1016.0 |
| 20260903100015 | 74 | 217 | 0.0 | 1.0 | 0.00 | 0.00 | 0.00 | 99 | 1016.1 |
| 20260903095514 | 74 | 180 | 0.0 | 1.0 | 0.00 | 0.00 | 0.00 | 99 | 1016.0 |
| 20260903095009 | 74 | 142 | 0.0 | 1.0 | 0.00 | 0.00 | 0.00 | 99 | 1016.0 |
| 20260903094508 | 74 | 234 | 0.0 | 2.0 | 0.00 | 0.00 | 0.00 | 99 | 1016.0 |
| 20260903094004 | 74 | 217 | 0.0 | 1.0 | 0.00 | 0.00 | 0.00 | 99 | 1016.0 |
| 20260903093459 | 74 | 217 | 0.0 | 1.0 | 0.00 | 0.00 | 0.00 | 98 | 1016.0 |
| 20260903092955 | 74 | 55 | 0.0 | 1.0 | 0.00 | 0.00 | 0.00 | 98 | 1016.0 |
| 20260903092454 | 74 | 293 | 0.0 | 0.0 | 0.00 | 0.00 | 0.00 | 98 | 1016.0 |
| 20260903091954 | 74 | 25 | 0.0 | 1.0 | 0.00 | 0.00 | 0.00 | 98 | 1015.8 |
| 20260903091452 | 74 | 237 | 0.0 | 2.0 | 0.00 | 0.00 | 0.00 | 98 | 1016.2 |
| 20260903090947 | 74 | 269 | 0.0 | 2.0 | 0.00 | 0.00 | 0.00 | 98 | 1016.1 |
| 20260903090443 | 74 | 147 | 0.0 | 1.0 | 0.00 | 0.00 | 0.00 | 98 | 1015.9 |
| 20260903085941 | 74 | 142 | 0.0 | 1.0 | 0.00 | 0.00 | 0.00 | 98 | 1015.9 |
| 20260903085439 | 74 | 230 | 0.0 | 1.0 | 0.00 | 0.00 | 0.00 | 97 | 1016.2 |
| 20260903084934 | 75 | 157 | 0.0 | 1.0 | 0.00 | 0.00 | 0.00 | 97 | 1016.3 |
| 20260903084432 | 75 | 103 | 0.0 | 2.0 | 0.00 | 0.00 | 0.00 | 97 | 1016.3 |
| 20260903083928 | 75 | 240 | 0.0 | 1.0 | 0.00 | 0.00 | 0.00 | 97 | 1016.4 |
| 20260903083424 | 75 | 187 | 0.0 | 1.0 | 0.00 | 0.00 | 0.00 | 97 | 1016.5 |
| 20260903082923 | 75 | 284 | 0.0 | 2.0 | 0.00 | 0.00 | 0.00 | 97 | 1016.4 |
| 20260903082418 | 75 | 246 | 0.0 | 3.0 | 0.00 | 0.00 | 0.00 | 97 | 1016.4 |
| 20260903081913 | 75 | 37 | 0.0 | 1.0 | 0.00 | 0.00 | 0.00 | 97 | 1016.5 |
| 20260903081408 | 75 | 299 | 0.0 | 2.0 | 0.00 | 0.00 | 0.00 | 97 | 1016.4 |
| 20260903080904 | 75 | 257 | 0.0 | 2.0 | 0.00 | 0.00 | 0.00 | 97 | 1016.4 |
| 20260903080355 | 75 | 209 | 0.0 | 1.0 | 0.00 | 0.00 | 0.00 | 96 | 1016.1 |
| 20260903075850 | 75 | 274 | 3.0 | 4.0 | 0.00 | 0.00 | 0.00 | 96 | 1016.1 |
| 20260903075345 | 76 | 272 | 0.0 | 2.0 | 0.00 | 0.00 | 0.00 | 95 | 1016.0 |
| 20260903074844 | 76 | 267 | 3.0 | 3.0 | 0.00 | 0.00 | 0.00 | 95 | 1015.8 |
| 20260903074339 | 76 | 267 | 0.0 | 4.0 | 0.00 | 0.00 | 0.00 | 95 | 1015.6 |
| 20260903073835 | 76 | 269 | 0.0 | 3.0 | 0.00 | 0.00 | 0.00 | 95 | 1015.8 |
| 20260903073330 | 76 | 253 | 0.0 | 3.0 | 0.00 | 0.00 | 0.00 | 95 | 1015.6 |
| 20260903072826 | 76 | 246 | 2.0 | 3.0 | 0.00 | 0.00 | 0.00 | 95 | 1015.7 |
| 20260903072321 | 76 | 233 | 2.0 | 3.0 | 0.00 | 0.00 | 0.00 | 94 | 1015.7 |
| 20260903071818 | 76 | 242 | 2.0 | 5.0 | 0.00 | 0.00 | 0.00 | 94 | 1015.6 |
| 20260903071314 | 76 | 250 | 2.0 | 5.0 | 0.00 | 0.00 | 0.00 | 95 | 1015.4 |
| 20260903070808 | 76 | 239 | 2.0 | 3.0 | 0.00 | 0.00 | 0.00 | 95 | 1015.8 |
| 20260903070303 | 76 | 249 | 2.0 | 5.0 | 0.00 | 0.00 | 0.00 | 95 | 1015.8 |
| 20260903065758 | 76 | 251 | 2.0 | 4.0 | 0.00 | 0.00 | 0.00 | 95 | 1015.6 |
| 20260903065258 | 76 | 225 | 0.0 | 4.0 | 0.00 | 0.00 | 0.00 | 94 | 1015.6 |
| 20260903064757 | 76 | 254 | 3.0 | 5.0 | 0.00 | 0.00 | 0.00 | 95 | 1015.7 |
| 20260903064253 | 76 | 243 | 4.0 | 6.0 | 0.00 | 0.00 | 0.00 | 95 | 1015.7 |
| 20260903063749 | 76 | 261 | 2.0 | 5.0 | 0.00 | 0.00 | 0.00 | 95 | 1015.7 |
| 20260903063243 | 76 | 257 | 0.0 | 6.0 | 0.00 | 0.00 | 0.00 | 95 | 1015.6 |
| 20260903062739 | 76 | 256 | 3.0 | 5.0 | 0.00 | 0.00 | 0.00 | 95 | 1015.8 |
| 20260903062238 | 76 | 249 | 2.0 | 5.0 | 0.00 | 0.00 | 0.00 | 95 | 1015.9 |
| 20260903061735 | 76 | 235 | 0.0 | 2.0 | 0.00 | 0.00 | 0.00 | 95 | 1015.9 |
| 20260903061233 | 76 | 230 | 0.0 | 5.0 | 0.00 | 0.00 | 0.00 | 95 | 1015.9 |
| 20260903060724 | 76 | 257 | 2.0 | 5.0 | 0.00 | 0.00 | 0.00 | 95 | 1015.6 |
| 20260903060224 | 76 | 253 | 2.0 | 5.0 | 0.00 | 0.00 | 0.00 | 96 | 1016.0 |
| 20260903055721 | 76 | 243 | 3.0 | 4.0 | 0.00 | 0.00 | 0.00 | 96 | 1016.0 |
| 20260903055220 | 76 | 232 | 0.0 | 5.0 | 0.00 | 0.00 | 0.00 | 96 | 1016.0 |
| 20260903054715 | 76 | 244 | 3.0 | 4.0 | 0.00 | 0.00 | 0.00 | 96 | 1016.0 |
| 20260903054210 | 76 | 260 | 2.0 | 4.0 | 0.00 | 0.00 | 0.00 | 96 | 1015.8 |
| 20260903053707 | 76 | 241 | 2.0 | 4.0 | 0.00 | 0.00 | 0.00 | 96 | 1015.9 |
| 20260903053201 | 76 | 219 | 3.0 | 4.0 | 0.00 | 0.00 | 0.00 | 96 | 1016.0 |
| 20260903052657 | 76 | 260 | 2.0 | 4.0 | 0.00 | 0.00 | 0.00 | 96 | 1016.0 |
| 20260903052153 | 76 | 253 | 3.0 | 3.0 | 0.00 | 0.00 | 0.00 | 96 | 1016.0 |
| 20260903051647 | 76 | 266 | 2.0 | 4.0 | 0.00 | 0.00 | 0.00 | 96 | 1016.0 |
| 20260903051143 | 76 | 251 | 2.0 | 4.0 | 0.00 | 0.00 | 0.00 | 96 | 1015.9 |
| 20260903050638 | 76 | 252 | 2.0 | 5.0 | 0.00 | 0.00 | 0.00 | 96 | 1015.9 |
| 20260903050132 | 76 | 219 | 0.0 | 4.0 | 0.00 | 0.00 | 0.00 | 96 | 1015.8 |
| 20260903045632 | 76 | 257 | 2.0 | 4.0 | 0.00 | 0.00 | 0.00 | 96 | 1015.8 |
| 20260903045129 | 76 | 223 | 3.0 | 5.0 | 0.00 | 0.00 | 0.00 | 96 | 1015.8 |
| 20260903044624 | 76 | 238 | 3.0 | 7.0 | 0.00 | 0.00 | 0.00 | 97 | 1015.7 |
| 20260903044120 | 76 | 242 | 2.0 | 5.0 | 0.00 | 0.00 | 0.00 | 97 | 1015.7 |
| 20260903043616 | 76 | 265 | 2.0 | 5.0 | 0.00 | 0.00 | 0.00 | 97 | 1015.5 |
| 20260903043115 | 76 | 253 | 3.0 | 7.0 | 0.00 | 0.00 | 0.00 | 98 | 1015.5 |
| 20260903042609 | 76 | 244 | 2.0 | 6.0 | 0.00 | 0.00 | 0.00 | 98 | 1015.2 |
| 20260903042105 | 75 | 245 | 2.0 | 4.0 | 0.00 | 0.00 | 0.00 | 98 | 1015.3 |
| 20260903041601 | 75 | 260 | 2.0 | 3.0 | 0.00 | 0.00 | 0.00 | 99 | 1015.2 |
| 20260903041101 | 75 | 248 | 2.0 | 5.0 | 0.00 | 0.00 | 0.00 | 99 | 1015.0 |
| 20260903040600 | 75 | 246 | 7.0 | 7.0 | 0.00 | 0.00 | 0.00 | 99 | 1015.1 |
| 20260903040057 | 75 | 258 | 2.0 | 5.0 | 0.00 | 0.00 | 0.00 | 99 | 1015.2 |
| 20260903035552 | 75 | 250 | 2.0 | 6.0 | 0.00 | 0.51 | 0.51 | 99 | 1015.2 |
| 20260903035048 | 75 | 245 | 2.0 | 4.0 | 0.00 | 0.51 | 0.51 | 99 | 1014.9 |
| 20260903034543 | 75 | 234 | 0.0 | 5.0 | 0.00 | 0.51 | 0.51 | 99 | 1015.2 |
| 20260903034038 | 75 | 261 | 2.0 | 5.0 | 0.00 | 0.51 | 0.51 | 99 | 1015.1 |
| 20260903033533 | 74 | 269 | 2.0 | 5.0 | 0.00 | 0.51 | 0.51 | 99 | 1015.2 |
| 20260903033029 | 74 | 233 | 2.0 | 5.0 | 0.00 | 0.51 | 0.51 | 99 | 1015.5 |
| 20260903032524 | 74 | 254 | 2.0 | 4.0 | 0.00 | 0.51 | 0.51 | 99 | 1015.5 |
| 20260903032019 | 74 | 189 | 1.0 | 4.0 | 0.00 | 0.51 | 0.51 | 99 | 1015.8 |
| 20260903031518 | 74 | 164 | 1.0 | 5.0 | 0.00 | 0.51 | 0.51 | 99 | 1015.6 |
| 20260903031014 | 74 | 224 | 0.0 | 2.0 | 0.00 | 0.51 | 0.51 | 99 | 1015.9 |
| 20260903030509 | 74 | 230 | 0.0 | 2.0 | 0.00 | 0.51 | 0.51 | 99 | 1015.9 |
| 20260903030006 | 74 | 217 | 0.0 | 2.0 | 0.00 | 0.51 | 0.51 | 99 | 1016.1 |
| 20260903025501 | 73 | 246 | 1.0 | 3.0 | 0.00 | 0.51 | 0.51 | 99 | 1015.8 |
| 20260903024956 | 73 | 226 | 1.0 | 2.0 | 0.02 | 0.51 | 0.51 | 99 | 1015.8 |
| 20260903024455 | 73 | 229 | 0.0 | 2.0 | 0.02 | 0.51 | 0.51 | 99 | 1015.9 |
| 20260903023950 | 73 | 129 | 0.0 | 0.0 | 0.00 | 0.50 | 0.50 | 99 | 1015.8 |
| 20260903023446 | 73 | 129 | 0.0 | 1.0 | 0.00 | 0.50 | 0.50 | 99 | 1015.9 |
| 20260903022941 | 73 | 154 | 0.0 | 1.0 | 0.00 | 0.50 | 0.50 | 99 | 1015.9 |
| 20260903022440 | 73 | 230 | 0.0 | 1.0 | 0.00 | 0.50 | 0.50 | 99 | 1016.1 |
| 20260903021938 | 73 | 235 | 0.0 | 1.0 | 0.00 | 0.50 | 0.50 | 99 | 1015.9 |
| 20260903021434 | 72 | 230 | 0.0 | 1.0 | 0.00 | 0.50 | 0.50 | 99 | 1016.1 |
| 20260903020929 | 72 | 195 | 0.0 | 2.0 | 0.00 | 0.50 | 0.50 | 99 | 1016.1 |
| 20260903020425 | 72 | 223 | 2.0 | 3.0 | 0.00 | 0.50 | 0.50 | 99 | 1016.2 |
| 20260903015919 | 72 | 88 | 2.0 | 3.0 | 0.00 | 0.50 | 0.50 | 99 | 1016.4 |
| 20260903015415 | 73 | 103 | 0.0 | 1.0 | 0.02 | 0.50 | 0.50 | 99 | 1016.6 |
| 20260903014910 | 73 | 83 | 2.0 | 2.0 | 0.73 | 0.50 | 0.50 | 99 | 1016.7 |
| 20260903014409 | 73 | 116 | 1.0 | 2.0 | 2.27 | 0.50 | 0.50 | 99 | 1017.2 |
| 20260903013904 | 74 | 220 | 5.0 | 11.0 | 0.59 | 0.12 | 0.12 | 96 | 1017.2 |
| 20260903013403 | 74 | 268 | 3.0 | 6.0 | 0.57 | 0.11 | 0.11 | 96 | 1017.3 |
| 20260903012903 | 77 | 329 | 3.0 | 9.0 | 0.31 | 0.05 | 0.05 | 94 | 1017.1 |
| 20260903012357 | 80 | 256 | 5.0 | 13.0 | 0.02 | 0.00 | 0.00 | 88 | 1017.0 |
| 20260903011855 | 81 | 269 | 0.0 | 5.0 | 0.00 | 0.00 | 0.00 | 84 | 1016.0 |
| 20260903011350 | 82 | 233 | 2.0 | 7.0 | 0.00 | 0.00 | 0.00 | 81 | 1015.7 |
| 20260903010846 | 82 | 249 | 2.0 | 4.0 | 0.00 | 0.00 | 0.00 | 80 | 1015.7 |
| 20260903010341 | 82 | 244 | 2.0 | 5.0 | 0.00 | 0.00 | 0.00 | 80 | 1015.9 |
| 20260903005839 | 82 | 249 | 0.0 | 6.0 | 0.00 | 0.00 | 0.00 | 79 | 1015.8 |
| 20260903005335 | 82 | 242 | 2.0 | 4.0 | 0.00 | 0.00 | 0.00 | 80 | 1016.0 |
| 20260903004831 | 82 | 235 | 2.0 | 3.0 | 0.00 | 0.00 | 0.00 | 79 | 1015.9 |
| 20260903004326 | 83 | 204 | 0.0 | 4.0 | 0.00 | 0.00 | 0.00 | 79 | 1015.8 |
| 20260903003822 | 82 | 240 | 3.0 | 4.0 | 0.00 | 0.00 | 0.00 | 78 | 1015.7 |
| 20260903003316 | 83 | 257 | 1.0 | 3.0 | 0.00 | 0.00 | 0.00 | 78 | 1015.7 |
| 20260903002815 | 83 | 257 | 2.0 | 3.0 | 0.00 | 0.00 | 0.00 | 77 | 1015.5 |
| 20260903002315 | 83 | 252 | 0.0 | 2.0 | 0.00 | 0.00 | 0.00 | 76 | 1015.6 |
| 20260903001810 | 83 | 240 | 2.0 | 3.0 | 0.00 | 0.00 | 0.00 | 75 | 1015.6 |
| 20260903001305 | 84 | 246 | 2.0 | 3.0 | 0.00 | 0.00 | 0.00 | 75 | 1015.7 |
| 20260903000800 | 84 | 247 | 1.0 | 3.0 | 0.00 | 0.00 | 0.00 | 74 | 1015.6 |
| 20260903000256 | 84 | 240 | 1.0 | 3.0 | 0.00 | 0.00 | 0.00 | 74 | 1015.8 |
| 20260902235753 | 84 | 247 | 0.0 | 2.0 | 0.00 | 0.00 | 0.00 | 73 | 1015.6 |
| 20260902235249 | 84 | 250 | 2.0 | 3.0 | 0.00 | 0.00 | 0.00 | 73 | 1015.6 |
| 20260902234748 | 84 | 241 | 3.0 | 4.0 | 0.00 | 0.00 | 0.00 | 73 | 1015.7 |
| 20260902234247 | 85 | 256 | 2.0 | 4.0 | 0.00 | 0.00 | 0.00 | 72 | 1015.6 |
| 20260902233742 | 85 | 238 | 2.0 | 4.0 | 0.00 | 0.00 | 0.00 | 72 | 1015.7 |
| 20260902233236 | 85 | 253 | 1.0 | 4.0 | 0.00 | 0.00 | 0.00 | 72 | 1015.8 |
| 20260902232734 | 85 | 262 | 2.0 | 4.0 | 0.00 | 0.00 | 0.00 | 72 | 1015.7 |
| 20260902232229 | 86 | 248 | 0.0 | 4.0 | 0.00 | 0.00 | 0.00 | 71 | 1015.7 |
| 20260902231729 | 86 | 233 | 2.0 | 6.0 | 0.00 | 0.00 | 0.00 | 71 | 1015.6 |
| 20260902231224 | 86 | 254 | 2.0 | 4.0 | 0.00 | 0.00 | 0.00 | 71 | 1015.6 |
| 20260902230719 | 86 | 267 | 3.0 | 5.0 | 0.00 | 0.00 | 0.00 | 71 | 1015.5 |
| 20260902230218 | 87 | 255 | 2.0 | 5.0 | 0.00 | 0.00 | 0.00 | 69 | 1015.4 |
| 20260902225712 | 87 | 236 | 3.0 | 6.0 | 0.00 | 0.00 | 0.00 | 69 | 1015.6 |
| 20260902225207 | 87 | 250 | 2.0 | 4.0 | 0.00 | 0.00 | 0.00 | 69 | 1015.5 |
| 20260902224705 | 87 | 269 | 0.0 | 3.0 | 0.00 | 0.00 | 0.00 | 68 | 1015.9 |
| 20260902224200 | 87 | 241 | 2.0 | 3.0 | 0.00 | 0.00 | 0.00 | 67 | 1015.8 |
| 20260902223657 | 87 | 289 | 3.0 | 5.0 | 0.00 | 0.00 | 0.00 | 67 | 1015.7 |
| 20260902223156 | 88 | 285 | 1.0 | 5.0 | 0.00 | 0.00 | 0.00 | 66 | 1015.5 |
| 20260902222650 | 88 | 260 | 2.0 | 6.0 | 0.00 | 0.00 | 0.00 | 67 | 1015.6 |
| 20260902222148 | 88 | 238 | 3.0 | 9.0 | 0.00 | 0.00 | 0.00 | 66 | 1015.7 |
| 20260902221642 | 89 | 252 | 3.0 | 7.0 | 0.00 | 0.00 | 0.00 | 65 | 1015.6 |
| 20260902221132 | 89 | 265 | 4.0 | 9.0 | 0.00 | 0.00 | 0.00 | 64 | 1015.6 |
| 20260902220627 | 90 | 218 | 3.0 | 10.0 | 0.00 | 0.00 | 0.00 | 64 | 1015.6 |
| 20260902220122 | 90 | 251 | 1.0 | 7.0 | 0.00 | 0.00 | 0.00 | 64 | 1015.8 |
| 20260902215618 | 91 | 237 | 3.0 | 6.0 | 0.00 | 0.00 | 0.00 | 62 | 1015.8 |
| 20260902215113 | 90 | 247 | 1.0 | 6.0 | 0.00 | 0.00 | 0.00 | 62 | 1015.8 |
| 20260902214608 | 90 | 244 | 2.0 | 6.0 | 0.00 | 0.00 | 0.00 | 63 | 1016.0 |
| 20260902214107 | 90 | 256 | 2.0 | 6.0 | 0.00 | 0.00 | 0.00 | 62 | 1016.0 |
| 20260902213603 | 90 | 253 | 2.0 | 7.0 | 0.00 | 0.00 | 0.00 | 64 | 1015.8 |
| 20260902213102 | 90 | 265 | 3.0 | 7.0 | 0.00 | 0.00 | 0.00 | 62 | 1015.7 |
| 20260902212558 | 90 | 244 | 4.0 | 9.0 | 0.00 | 0.00 | 0.00 | 61 | 1015.9 |
| 20260902212054 | 90 | 123 | 2.0 | 7.0 | 0.00 | 0.00 | 0.00 | 62 | 1015.8 |
| 20260902211550 | 91 | 267 | 4.0 | 7.0 | 0.00 | 0.00 | 0.00 | 61 | 1015.8 |
| 20260902211049 | 91 | 260 | 4.0 | 8.0 | 0.00 | 0.00 | 0.00 | 61 | 1015.9 |
| 20260902210544 | 92 | 228 | 5.0 | 11.0 | 0.00 | 0.00 | 0.00 | 60 | 1015.8 |
| 20260902210043 | 91 | 230 | 1.0 | 5.0 | 0.00 | 0.00 | 0.00 | 61 | 1015.9 |
| 20260902205542 | 91 | 258 | 2.0 | 7.0 | 0.00 | 0.00 | 0.00 | 63 | 1015.8 |
| 20260902205038 | 91 | 224 | 3.0 | 7.0 | 0.00 | 0.00 | 0.00 | 61 | 1015.9 |
| 20260902204533 | 91 | 345 | 0.0 | 5.0 | 0.00 | 0.00 | 0.00 | 62 | 1016.0 |
| 20260902204028 | 92 | 243 | 3.0 | 5.0 | 0.00 | 0.00 | 0.00 | 61 | 1016.3 |
| 20260902203523 | 92 | 266 | 1.0 | 7.0 | 0.00 | 0.00 | 0.00 | 60 | 1016.1 |
| 20260902203022 | 91 | 285 | 1.0 | 9.0 | 0.00 | 0.00 | 0.00 | 62 | 1016.0 |
| 20260902202518 | 92 | 265 | 2.0 | 8.0 | 0.00 | 0.00 | 0.00 | 63 | 1016.3 |
| 20260902202014 | 92 | 257 | 6.0 | 7.0 | 0.00 | 0.00 | 0.00 | 62 | 1016.3 |
| 20260902201509 | 91 | 259 | 2.0 | 5.0 | 0.00 | 0.00 | 0.00 | 62 | 1016.4 |
| 20260902201004 | 93 | 282 | 0.0 | 4.0 | 0.00 | 0.00 | 0.00 | 61 | 1016.2 |
| 20260902200459 | 92 | 263 | 3.0 | 7.0 | 0.00 | 0.00 | 0.00 | 60 | 1016.3 |
| 20260902195954 | 91 | 252 | 1.0 | 7.0 | 0.00 | 0.00 | 0.00 | 60 | 1016.4 |
| 20260902195450 | 91 | 235 | 3.0 | 11.0 | 0.00 | 0.00 | 0.00 | 61 | 1016.3 |
| 20260902194944 | 92 | 258 | 4.0 | 7.0 | 0.00 | 0.00 | 0.00 | 60 | 1016.5 |
| 20260902194443 | 91 | 267 | 2.0 | 6.0 | 0.00 | 0.00 | 0.00 | 63 | 1016.3 |
| 20260902193938 | 91 | 274 | 3.0 | 8.0 | 0.00 | 0.00 | 0.00 | 61 | 1016.4 |
| 20260902193434 | 90 | 286 | 3.0 | 9.0 | 0.00 | 0.00 | 0.00 | 63 | 1016.4 |
| 20260902192932 | 91 | 255 | 3.0 | 7.0 | 0.00 | 0.00 | 0.00 | 64 | 1016.6 |
| 20260902192432 | 91 | 230 | 5.0 | 9.0 | 0.00 | 0.00 | 0.00 | 62 | 1016.7 |
| 20260902191931 | 91 | 291 | 2.0 | 5.0 | 0.00 | 0.00 | 0.00 | 65 | 1016.8 |
| 20260902191426 | 90 | 253 | 4.0 | 9.0 | 0.00 | 0.00 | 0.00 | 65 | 1016.7 |
| 20260902190922 | 91 | 240 | 2.0 | 7.0 | 0.00 | 0.00 | 0.00 | 66 | 1016.7 |
| 20260902190417 | 90 | 284 | 2.0 | 6.0 | 0.00 | 0.00 | 0.00 | 67 | 1016.8 |
| 20260902185912 | 90 | 268 | 2.0 | 5.0 | 0.00 | 0.00 | 0.00 | 67 | 1017.1 |
| 20260902185409 | 90 | 241 | 4.0 | 5.0 | 0.00 | 0.00 | 0.00 | 67 | 1017.1 |
| 20260902184903 | 90 | 237 | 2.0 | 8.0 | 0.00 | 0.00 | 0.00 | 67 | 1017.1 |
| 20260902184358 | 89 | 242 | 0.0 | 7.0 | 0.00 | 0.00 | 0.00 | 67 | 1017.2 |
| 20260902183854 | 89 | 89 | 0.0 | 6.0 | 0.00 | 0.00 | 0.00 | 68 | 1017.3 |
| 20260902183350 | 88 | 321 | 1.0 | 6.0 | 0.00 | 0.00 | 0.00 | 69 | 1017.5 |
| 20260902182845 | 90 | 266 | 4.0 | 9.0 | 0.00 | 0.00 | 0.00 | 67 | 1017.3 |
| 20260902182341 | 90 | 240 | 2.0 | 7.0 | 0.00 | 0.00 | 0.00 | 65 | 1017.2 |
| 20260902181832 | 90 | 246 | 1.0 | 9.0 | 0.00 | 0.00 | 0.00 | 65 | 1017.6 |
| 20260902181327 | 90 | 269 | 0.0 | 6.0 | 0.00 | 0.00 | 0.00 | 67 | 1017.5 |
| 20260902180821 | 90 | 55 | 2.0 | 6.0 | 0.00 | 0.00 | 0.00 | 67 | 1017.4 |
| 20260902180317 | 89 | 280 | 2.0 | 7.0 | 0.00 | 0.00 | 0.00 | 66 | 1017.7 |
| 20260902175812 | 88 | 245 | 4.0 | 8.0 | 0.00 | 0.00 | 0.00 | 70 | 1017.7 |
| 20260902175308 | 89 | 250 | 4.0 | 6.0 | 0.00 | 0.00 | 0.00 | 71 | 1017.7 |
| 20260902174802 | 88 | 262 | 3.0 | 5.0 | 0.00 | 0.00 | 0.00 | 72 | 1017.5 |
| 20260902174259 | 89 | 255 | 3.0 | 7.0 | 0.00 | 0.00 | 0.00 | 73 | 1017.6 |
| 20260902173754 | 88 | 255 | 0.0 | 4.0 | 0.00 | 0.00 | 0.00 | 74 | 1017.7 |
| 20260902173249 | 87 | 296 | 3.0 | 5.0 | 0.00 | 0.00 | 0.00 | 74 | 1017.8 |
| 20260902172743 | 88 | 243 | 3.0 | 4.0 | 0.00 | 0.00 | 0.00 | 74 | 1017.9 |
| 20260902172238 | 89 | 280 | 2.0 | 5.0 | 0.00 | 0.00 | 0.00 | 72 | 1018.0 |
| 20260902171733 | 90 | 242 | 4.0 | 7.0 | 0.00 | 0.00 | 0.00 | 70 | 1018.0 |
| 20260902171228 | 89 | 281 | 3.0 | 6.0 | 0.00 | 0.00 | 0.00 | 73 | 1017.8 |
| 20260902170724 | 88 | 204 | 0.0 | 8.0 | 0.00 | 0.00 | 0.00 | 73 | 1017.9 |
| 20260902170219 | 87 | 313 | 2.0 | 3.0 | 0.00 | 0.00 | 0.00 | 75 | 1017.9 |
| 20260902165714 | 88 | 288 | 2.0 | 4.0 | 0.00 | 0.00 | 0.00 | 75 | 1017.9 |
| 20260902165209 | 88 | 242 | 6.0 | 7.0 | 0.00 | 0.00 | 0.00 | 74 | 1018.0 |
| 20260902164709 | 87 | 221 | 3.0 | 7.0 | 0.00 | 0.00 | 0.00 | 76 | 1017.8 |
| 20260902164203 | 87 | 269 | 0.0 | 3.0 | 0.00 | 0.00 | 0.00 | 76 | 1018.0 |
| 20260902163657 | 88 | 124 | 0.0 | 3.0 | 0.00 | 0.00 | 0.00 | 76 | 1017.9 |
| 20260902163152 | 87 | 268 | 2.0 | 3.0 | 0.00 | 0.00 | 0.00 | 77 | 1018.0 |
| 20260902162650 | 87 | 253 | 4.0 | 5.0 | 0.00 | 0.00 | 0.00 | 77 | 1018.1 |
| 20260902162144 | 86 | 233 | 2.0 | 6.0 | 0.00 | 0.00 | 0.00 | 78 | 1018.1 |
| 20260902161639 | 87 | 230 | 4.0 | 5.0 | 0.00 | 0.00 | 0.00 | 79 | 1018.2 |
| 20260902161130 | 87 | 294 | 1.0 | 4.0 | 0.00 | 0.00 | 0.00 | 79 | 1018.3 |
| 20260902160626 | 86 | 275 | 2.0 | 5.0 | 0.00 | 0.00 | 0.00 | 80 | 1018.3 |
| 20260902160121 | 85 | 253 | 1.0 | 3.0 | 0.00 | 0.00 | 0.00 | 80 | 1018.2 |
| 20260902155619 | 85 | 253 | 1.0 | 5.0 | 0.00 | 0.00 | 0.00 | 80 | 1018.4 |
| 20260902155118 | 85 | 228 | 2.0 | 5.0 | 0.00 | 0.00 | 0.00 | 80 | 1018.4 |
| 20260902154613 | 85 | 281 | 2.0 | 4.0 | 0.00 | 0.00 | 0.00 | 80 | 1018.4 |
| 20260902154108 | 85 | 280 | 3.0 | 5.0 | 0.00 | 0.00 | 0.00 | 80 | 1018.2 |
| 20260902153607 | 85 | 233 | 4.0 | 5.0 | 0.00 | 0.00 | 0.00 | 80 | 1018.3 |
| 20260902153103 | 84 | 245 | 1.0 | 4.0 | 0.00 | 0.00 | 0.00 | 81 | 1018.3 |
| 20260902152559 | 84 | 227 | 3.0 | 3.0 | 0.00 | 0.00 | 0.00 | 82 | 1018.5 |
| 20260902152054 | 84 | 278 | 5.0 | 6.0 | 0.00 | 0.00 | 0.00 | 83 | 1018.5 |
| 20260902151550 | 83 | 234 | 4.0 | 7.0 | 0.00 | 0.00 | 0.00 | 83 | 1018.3 |
| 20260902151049 | 83 | 244 | 5.0 | 6.0 | 0.00 | 0.00 | 0.00 | 82 | 1018.2 |
| 20260902150544 | 83 | 271 | 3.0 | 5.0 | 0.00 | 0.00 | 0.00 | 83 | 1018.5 |
| 20260902150039 | 82 | 209 | 0.0 | 3.0 | 0.00 | 0.00 | 0.00 | 84 | 1018.3 |
| 20260902145529 | 82 | 253 | 2.0 | 4.0 | 0.00 | 0.00 | 0.00 | 84 | 1018.4 |
| 20260902145029 | 82 | 13 | 0.0 | 2.0 | 0.00 | 0.00 | 0.00 | 85 | 1018.5 |
| 20260902144526 | 82 | 314 | 3.0 | 7.0 | 0.00 | 0.00 | 0.00 | 85 | 1018.4 |
| 20260902144026 | 81 | 216 | 0.0 | 5.0 | 0.00 | 0.00 | 0.00 | 86 | 1018.5 |
| 20260902143520 | 81 | 77 | 1.0 | 8.0 | 0.00 | 0.00 | 0.00 | 86 | 1018.5 |
| 20260902143016 | 80 | 259 | 1.0 | 5.0 | 0.00 | 0.00 | 0.00 | 87 | 1018.3 |
| 20260902142512 | 80 | 238 | 3.0 | 5.0 | 0.00 | 0.00 | 0.00 | 86 | 1018.1 |
| 20260902142007 | 80 | 263 | 2.0 | 6.0 | 0.00 | 0.00 | 0.00 | 86 | 1018.3 |
| 20260902141501 | 80 | 256 | 4.0 | 6.0 | 0.00 | 0.00 | 0.00 | 87 | 1018.5 |
| 20260902140956 | 80 | 239 | 3.0 | 4.0 | 0.00 | 0.00 | 0.00 | 88 | 1018.5 |
| 20260902140451 | 79 | 247 | 3.0 | 5.0 | 0.00 | 0.00 | 0.00 | 88 | 1018.4 |
| 20260902135950 | 78 | 242 | 1.0 | 6.0 | 0.00 | 0.00 | 0.00 | 88 | 1018.4 |
| 20260902135446 | 77 | 263 | 2.0 | 7.0 | 0.00 | 0.00 | 0.00 | 89 | 1018.3 |
| 20260902134946 | 78 | 231 | 4.0 | 7.0 | 0.00 | 0.00 | 0.00 | 89 | 1018.2 |
| 20260902134442 | 77 | 277 | 3.0 | 9.0 | 0.00 | 0.00 | 0.00 | 89 | 1018.1 |
| 20260902133942 | 77 | 272 | 4.0 | 7.0 | 0.00 | 0.00 | 0.00 | 90 | 1018.2 |